Opa Locka, FL

8:26 AM EST on December 10, 2019 (GMT -0500)
Opa Locka

Weather History for KOPF - November, 2019

Change the Weather History Date:

Monday, November 11, 2019

  Actual Average Record
Temperature  
Mean Temperature 78 °F -  
Max Temperature 84 °F 81 °F 88 °F (2002)
Min Temperature 71 °F 63 °F 50 °F (1962)
Cooling Degree Days 12    
Growing Degree Days 28 (Base 50)    
Moisture  
Dew Point 63 °F    
Average Humidity 62    
Maximum Humidity 76    
Minimum Humidity 47    
Precipitation  
Precipitation 0.00 in - - ()
Sea Level Pressure  
Sea Level Pressure 30.05 in    
Wind  
Wind Speed 7 mph ()    
Max Wind Speed 16 mph    
Max Gust Speed 26 mph    
Visibility 10.0 miles    
Events      
Averages and records for this station are not official NWS values.
T = Trace of Precipitation, MM = Missing Value Source: Averaged Metar Reports

Daily Weather History Graph

Daily Weather History Graph

Search for Another Location

Airport or City:

Astronomy

Nov. 11, 2019 Rise Set
Actual Time 6:36 AM EST 5:33 PM EST
Civil Twilight 6:12 AM EST 5:57 PM EST
Nautical Twilight 5:44 AM EST 6:25 PM EST
Astronomical Twilight 5:17 AM EST 6:52 PM EST
Moon 5:19 PM EST (11/11) 5:37 AM EST (11/11)
Length of Visible Light 11h 45m
Length of Day
10h 57m
Waxing Gibbous, 99% of the Moon is Illuminated
Nov 11
Waxing Gibbous
Nov 12
Full
Nov 19
Last Quarter
Nov 26
New
Dec 4
First Quarter

Hourly Weather History & Observations

Time (EST) Temp. Heat Index Dew Point Humidity Pressure Visibility Wind Dir Wind Speed Gust Speed Precip Events Conditions
12:53 AM 72.0 °F - 59.0 °F 64% 30.07 in 10.0 mi North 5.8 mph - N/A   Scattered Clouds
1:53 AM 71.1 °F - 61.0 °F 70% 30.06 in 10.0 mi North 5.8 mph - N/A   Scattered Clouds
2:53 AM 72.0 °F - 62.1 °F 71% 30.05 in 10.0 mi North 5.8 mph - N/A   Mostly Cloudy
3:53 AM 71.1 °F - 63.0 °F 75% 30.05 in 10.0 mi NNE 5.8 mph - N/A   Clear
4:53 AM 73.9 °F - 64.0 °F 71% 30.05 in 10.0 mi NE 4.6 mph - N/A   Mostly Cloudy
5:53 AM 75.0 °F - 64.9 °F 71% 30.06 in 10.0 mi ENE 10.4 mph - N/A   Mostly Cloudy
6:53 AM 75.0 °F - 66.0 °F 73% 30.07 in 10.0 mi East 9.2 mph - N/A   Scattered Clouds
7:53 AM 79.0 °F - 64.9 °F 62% 30.08 in 10.0 mi East 10.4 mph - N/A   Mostly Cloudy
8:53 AM 81.0 °F 82.2 °F 63.0 °F 54% 30.09 in 10.0 mi East 13.8 mph - N/A   Scattered Clouds
9:53 AM 82.0 °F 82.7 °F 61.0 °F 49% 30.10 in 10.0 mi East 16.1 mph - N/A   Scattered Clouds
10:53 AM 82.9 °F 84.0 °F 63.0 °F 51% 30.09 in 10.0 mi ESE 15.0 mph 26.5 mph N/A   Scattered Clouds
11:53 AM 84.0 °F 84.9 °F 63.0 °F 49% 30.06 in 10.0 mi East 15.0 mph - N/A   Clear
12:53 PM 84.0 °F 84.5 °F 62.1 °F 47% 30.04 in 10.0 mi ESE 11.5 mph - N/A   Scattered Clouds
1:53 PM 82.9 °F 83.7 °F 62.1 °F 49% 30.03 in 10.0 mi ESE 11.5 mph 24.2 mph N/A   Scattered Clouds
2:53 PM 84.0 °F 85.4 °F 64.0 °F 51% 30.01 in 10.0 mi ESE 12.7 mph 26.5 mph N/A   Scattered Clouds
3:53 PM 82.0 °F 83.0 °F 62.1 °F 51% 30.02 in 10.0 mi East 13.8 mph - N/A   Partly Cloudy
4:53 PM 79.0 °F - 63.0 °F 58% 30.02 in 10.0 mi East 10.4 mph - N/A   Scattered Clouds
5:53 PM 78.1 °F - 64.0 °F 62% 30.02 in 10.0 mi East 8.1 mph - N/A   Clear
6:53 PM 75.9 °F - 64.0 °F 67% 30.03 in 10.0 mi East 5.8 mph - N/A   Clear
7:53 PM 75.0 °F - 64.0 °F 69% 30.04 in 10.0 mi East 3.5 mph - N/A   Clear
8:53 PM 75.0 °F - 64.0 °F 69% 30.05 in 10.0 mi ESE 3.5 mph - N/A   Clear
9:53 PM 73.9 °F - 63.0 °F 68% 30.04 in 10.0 mi SSE 4.6 mph - N/A   Clear
10:53 PM 73.0 °F - 63.0 °F 71% 30.03 in 10.0 mi Calm Calm - N/A   Scattered Clouds
11:53 PM 73.0 °F - 64.9 °F 76% 30.01 in 10.0 mi Calm Calm - N/A   Partly Cloudy